TimeMDT,TemperatureF,Dew PointF,Humidity,Sea Level PressureIn,VisibilityMPH,Wind Direction,Wind SpeedMPH,Gust SpeedMPH,PrecipitationIn,Events,Conditions,WindDirDegrees,DateUTC
12:51 AM,33.1,18.0,54,30.24,10.0,North,4.6,-,N/A,,Clear,10,2012-10-04 06:51:00
1:51 AM,27.0,18.0,69,30.24,10.0,SSE,3.5,-,N/A,,Clear,150,2012-10-04 07:51:00
2:51 AM,28.0,17.1,63,30.24,10.0,Calm,Calm,-,N/A,,Clear,0,2012-10-04 08:51:00
3:51 AM,25.0,19.9,81,30.22,10.0,Calm,Calm,-,N/A,,Clear,0,2012-10-04 09:51:00
4:51 AM,26.1,14.0,60,30.22,10.0,Calm,Calm,-,N/A,,Clear,0,2012-10-04 10:51:00
5:51 AM,24.1,15.1,69,30.23,10.0,Calm,Calm,-,N/A,,Clear,0,2012-10-04 11:51:00
6:51 AM,23.0,16.0,74,30.23,10.0,Calm,Calm,-,N/A,,Clear,0,2012-10-04 12:51:00
7:51 AM,23.0,14.0,68,30.26,10.0,NE,3.5,-,N/A,,Clear,50,2012-10-04 13:51:00
8:51 AM,26.1,16.0,66,30.25,10.0,Calm,Calm,-,N/A,,Clear,0,2012-10-04 14:51:00
10:51 AM,41.0,19.9,43,30.23,10.0,Calm,Calm,-,N/A,,Clear,0,2012-10-04 16:51:00
11:51 AM,45.0,17.1,33,30.22,10.0,SSW,5.8,-,N/A,,Clear,200,2012-10-04 17:51:00
12:51 PM,48.0,16.0,28,30.20,10.0,Calm,Calm,-,N/A,,Clear,0,2012-10-04 18:51:00
1:51 PM,51.1,16.0,25,30.19,10.0,NNW,5.8,-,N/A,,Clear,330,2012-10-04 19:51:00
2:51 PM,53.1,10.0,18,30.17,10.0,NW,9.2,-,N/A,,Clear,310,2012-10-04 20:51:00
3:51 PM,53.1,12.0,20,30.16,10.0,West,9.2,-,N/A,,Clear,270,2012-10-04 21:51:00
4:51 PM,52.0,14.0,22,30.16,10.0,West,9.2,17.3,N/A,,Clear,260,2012-10-04 22:51:00
5:51 PM,51.1,15.1,24,30.17,10.0,WNW,9.2,-,N/A,,Clear,290,2012-10-04 23:51:00
6:51 PM,48.0,15.1,27,30.19,8.0,West,9.2,-,N/A,,Partly Cloudy,280,2012-10-05 00:51:00
7:51 PM,46.0,17.1,31,30.22,10.0,North,9.2,-,N/A,,Clear,350,2012-10-05 01:51:00
9:51 PM,41.0,18.0,40,30.23,10.0,NNW,13.8,-,N/A,,Clear,340,2012-10-05 03:51:00
10:51 PM,39.0,18.0,43,30.22,10.0,North,9.2,16.1,N/A,,Clear,350,2012-10-05 04:51:00
11:51 PM,36.0,18.0,48,30.22,9.0,North,3.5,-,N/A,,Clear,350,2012-10-05 05:51:00